This demonstration page uses our WeatherBlox Daily Observations layout. Learn more.

Left ArrowRight Arrow

Hourly Observations for October 22, 2022

Temp ( °F °C ) Dew Point ( °F °C ) Humidity (%) Winds ( mph kmh ) Pressure ( in mb ) Visibility ( mi km ) Precip ( " mm )
12:15 am 00:15 Clear 43 6 39 4 87 87 Calm 30.20 1023 10 16 0.00 0.00
12:35 am 00:35 Clear 43 6 37 3 81 81 Calm 30.20 1023 10 16 0.00 0.00
12:55 am 00:55 Clear 43 6 37 3 81 81 Calm 30.21 1023 10 16 0.00 0.00
1:15 am 01:15 Clear 41 5 37 3 87 87 Calm 30.21 1023 10 16 0.00 0.00
1:35 am 01:35 Clear 43 6 37 3 81 81 Calm 30.21 1023 10 16 0.00 0.00
1:55 am 01:55 Clear 41 5 37 3 87 87 Calm 30.21 1023 10 16 0.00 0.00
2:15 am 02:15 Clear 41 5 39 4 93 93 Calm 30.21 1023 10 16 0.00 0.00
2:35 am 02:35 Clear 39 4 37 3 93 93 Calm 30.22 1023 10 16 0.00 0.00
2:55 am 02:55 Clear 39 4 37 3 93 93 Calm 30.20 1023 10 16 0.00 0.00
3:15 am 03:15 Clear 37 3 37 3 100 100 Calm 30.21 1023 10 16 0.00 0.00
3:35 am 03:35 Clear 37 3 37 3 100 100 N 3 6 30.22 1023 10 16 0.00 0.00
3:55 am 03:55 Clear 39 4 37 3 93 93 Calm 30.20 1023 10 16 0.00 0.00
4:15 am 04:15 Clear 37 3 37 3 100 100 Calm 30.21 1023 10 16 0.00 0.00
4:35 am 04:35 Clear 37 3 37 3 100 100 Calm 30.21 1023 10 16 0.00 0.00
4:55 am 04:55 Clear 37 3 37 3 100 100 Calm 30.22 1023 10 16 0.00 0.00
5:15 am 05:15 Clear 37 3 37 3 100 100 Calm 30.22 1023 10 16 0.00 0.00
5:35 am 05:35 Clear 37 3 37 3 100 100 Calm 30.22 1023 10 16 0.00 0.00
5:55 am 05:55 Clear 37 3 37 3 100 100 Calm 30.23 1024 10 16 0.00 0.00
6:15 am 06:15 Clear 37 3 37 3 100 100 Calm 30.24 1024 10 16 0.00 0.00
6:35 am 06:35 Clear 36 2 36 2 100 100 Calm 30.25 1024 10 16 0.00 0.00
6:55 am 06:55 Clear 36 2 36 2 100 100 Calm 30.25 1024 10 16 0.00 0.00
7:15 am 07:15 Clear 36 2 36 2 100 100 Calm 30.25 1024 10 16 0.00 0.00
7:35 am 07:35 Sunny 37 3 37 3 100 100 Calm 30.25 1024 10 16 0.00 0.00
7:55 am 07:55 Sunny 36 2 36 2 100 100 NNW 3 6 30.26 1025 10 16 0.00 0.00
8:15 am 08:15 Sunny 36 2 36 2 100 100 Calm 30.27 1025 10 16 0.00 0.00
8:35 am 08:35 Sunny 39 4 37 3 93 93 Calm 30.28 1025 10 16 0.00 0.00
8:55 am 08:55 Sunny 43 6 41 5 93 93 Calm 30.28 1025 10 16 0.00 0.00
9:15 am 09:15 Sunny 45 7 41 5 87 87 Calm 30.28 1025 10 16 0.00 0.00
9:35 am 09:35 Sunny 46 8 43 6 87 87 Calm 30.29 1026 10 16 0.00 0.00
9:55 am 09:55 Sunny 48 9 43 6 81 81 Calm 30.29 1026 10 16 0.00 0.00
10:15 am 10:15 Sunny 50 10 43 6 76 76 Calm 30.29 1026 10 16 0.00 0.00
10:35 am 10:35 Sunny 52 11 45 7 76 76 Calm 30.29 1026 10 16 0.00 0.00
10:55 am 10:55 Sunny 54 12 45 7 71 71 Calm 30.28 1026 10 16 0.00 0.00
11:15 am 11:15 Sunny 55 13 45 7 67 67 Calm 30.28 1025 10 16 0.00 0.00
11:35 am 11:35 Sunny 57 14 45 7 63 63 Calm 30.27 1025 10 16 0.00 0.00
11:55 am 11:55 Sunny 61 16 45 7 55 55 Calm 30.27 1025 10 16 0.00 0.00
12:15 pm 12:15 Sunny 61 16 43 6 51 51 SSE 5 7 30.27 1025 10 16 0.00 0.00
12:35 pm 12:35 Sunny 63 17 45 7 52 52 Calm 30.26 1025 10 16 0.00 0.00
12:55 pm 12:55 Sunny 63 17 43 6 48 48 Calm 30.26 1025 10 16 0.00 0.00
1:15 pm 13:15 Sunny 64 18 41 5 42 42 SSE 6 9 30.25 1024 10 16 0.00 0.00
1:35 pm 13:35 Sunny 66 19 41 5 40 40 SE 7 11 30.23 1024 10 16 0.00 0.00
1:55 pm 13:55 Sunny 68 20 41 5 37 37 SSW 6 9 30.22 1023 10 16 0.00 0.00
2:15 pm 14:15 Sunny 68 20 41 5 37 37 SSE 6 9 30.21 1023 N/A 0.00 0.00
2:35 pm 14:35 Sunny 68 20 41 5 37 37 SSE 5 7 30.21 1023 10 16 0.00 0.00
2:55 pm 14:55 Sunny 68 20 41 5 37 37 Calm 30.21 1023 10 16 0.00 0.00
3:15 pm 15:15 Sunny 70 21 41 5 35 35 SSW 3 6 30.22 1023 10 16 0.00 0.00
3:35 pm 15:35 Sunny 70 21 41 5 35 35 SE 8 13 30.21 1023 10 16 0.00 0.00
3:55 pm 15:55 Sunny 70 21 39 4 33 33 SSE 5 7 30.21 1023 10 16 0.00 0.00
4:15 pm 16:15 Sunny 70 21 41 5 35 35 SSW 5 7 30.21 1023 10 16 0.00 0.00
4:35 pm 16:35 Sunny 70 21 41 5 35 35 Calm 30.21 1023 10 16 0.00 0.00
4:55 pm 16:55 Sunny 70 21 41 5 35 35 Calm 30.21 1023 10 16 0.00 0.00
5:15 pm 17:15 Sunny 70 21 43 6 38 38 Calm 30.21 1023 10 16 0.00 0.00
5:35 pm 17:35 Sunny 70 21 43 6 38 38 SSE 6 9 30.21 1023 10 16 0.00 0.00
5:55 pm 17:55 Sunny 68 20 43 6 40 40 SSE 5 7 30.22 1023 10 16 0.00 0.00
6:15 pm 18:15 Sunny 66 19 41 5 40 40 SSE 5 7 30.22 1023 10 16 0.00 0.00
6:35 pm 18:35 Clear 64 18 41 5 42 42 SSE 3 6 30.22 1024 10 16 0.00 0.00
6:55 pm 18:55 Clear 63 17 41 5 45 45 SE 3 6 30.23 1024 10 16 0.00 0.00
7:15 pm 19:15 Clear 61 16 43 6 51 51 Calm 30.23 1024 10 16 0.00 0.00
7:35 pm 19:35 Clear 55 13 45 7 67 67 Calm 30.23 1024 10 16 0.00 0.00
7:55 pm 19:55 Clear 55 13 43 6 62 62 Calm 30.24 1024 10 16 0.00 0.00
8:15 pm 20:15 Clear 55 13 43 6 62 62 E 3 6 30.25 1024 10 16 0.00 0.00
8:35 pm 20:35 Clear 54 12 45 7 71 71 Calm 30.25 1025 10 16 0.00 0.00
8:55 pm 20:55 Clear 50 10 45 7 82 82 Calm 30.27 1025 10 16 0.00 0.00
9:15 pm 21:15 Clear 50 10 45 7 82 82 N 3 6 30.26 1025 10 16 0.00 0.00
9:35 pm 21:35 Clear 50 10 45 7 82 82 Calm 30.27 1025 10 16 0.00 0.00
9:55 pm 21:55 Clear 46 8 45 7 93 93 NNW 3 6 30.27 1025 10 16 0.00 0.00
10:15 pm 22:15 Clear 48 9 45 7 87 87 NNW 5 7 30.27 1025 10 16 0.00 0.00
10:35 pm 22:35 Clear 46 8 45 7 93 93 Calm 30.28 1025 10 16 0.00 0.00
10:55 pm 22:55 Clear 45 7 45 7 100 100 NNW 3 6 30.28 1025 10 16 0.00 0.00
11:15 pm 23:15 Clear 46 8 45 7 93 93 E 8 13 30.28 1025 10 16 0.00 0.00
11:35 pm 23:35 Clear 45 7 43 6 93 93 NNW 3 6 30.27 1025 10 16 0.00 0.00
11:55 pm 23:55 Clear 46 8 43 6 87 87 Calm 30.28 1025 10 16 0.00 0.00

Powered by AerisWeather